This demonstration page uses our WeatherBlox Daily Observations layout. Learn more.

Left ArrowRight Arrow

39.29038, -76.61219

Hourly Observations for August 23, 2020

Temp ( °F °C ) Dew Point ( °F °C ) Humidity (%) Winds ( mph kmh ) Pressure ( in mb ) Visibility ( mi km ) Precip ( " mm )
12:54 am 00:54 Cloudy 75 23.9 71 21.7 88 88 S 5 7 30.01 1016 10 16 0.00 0.00
1:54 am 01:54 Cloudy 75 23.9 71 21.7 88 88 Calm 29.99 1016 10 16 0.00 0.00
2:54 am 02:54 Cloudy 74 23.3 71 21.7 91 91 E 3 6 29.99 1016 10 16 0.00 0.00
3:54 am 03:54 Mostly Cloudy 73 22.8 71 21.7 94 94 S 3 6 30.01 1016 10 16 0.00 0.00
4:54 am 04:54 Mostly Cloudy 73 22.8 70 21.1 90 90 Calm 30.01 1016 10 16 0.00 0.00
5:48 am 05:48 Mostly Cloudy 73 23 72 22 94 94 Calm 30.02 1017 8 13 0.00 0.00
5:54 am 05:54 Mostly Cloudy 74 23.3 71 21.7 91 91 Calm 30.02 1017 8 13 0.00 0.00
6:54 am 06:54 Mostly Cloudy with Patchy Fog 74 23.3 71 21.7 91 91 Calm 30.03 1017 7 11 0.00 0.00
7:54 am 07:54 Mostly Cloudy 76 24.4 72 22.2 88 88 Calm 30.04 1017 10 16 0.00 0.00
8:54 am 08:54 Mostly Cloudy 78 25.6 73 22.8 85 85 Calm 30.05 1018 10 16 0.00 0.00
9:54 am 09:54 Mostly Cloudy 81 27.2 73 22.8 77 77 W 5 7 30.05 1018 10 16 0.00 0.00
10:12 am 10:12 Mostly Cloudy 83 28.3 74 23.3 74 74 W 5 7 30.05 1018 10 16 0.00 0.00
10:54 am 10:54 Mostly Cloudy 85 29.4 72 22.2 65 65 SSW 6 9 30.05 1018 10 16 0.00 0.00
11:54 am 11:54 Mostly Cloudy 86 30 71 21.7 61 61 S 3 6 30.04 1017 10 16 0.00 0.00
12:54 pm 12:54 Mostly Cloudy 88 31.1 70 21.1 55 55 VRB 3 6 30.03 1017 10 16 0.00 0.00
1:54 pm 13:54 Mostly Cloudy 89 31.7 71 21.7 55 55 SW 8 13 30.01 1016 10 16 0.00 0.00
2:54 pm 14:54 Mostly Cloudy 91 32.8 71 21.7 52 52 SW 8 13 30.00 1016 10 16 0.00 0.00
3:54 pm 15:54 Partly Cloudy 90 32.2 69 20.6 50 50 VRB 7 11 29.98 1015 10 16 0.00 0.00
4:54 pm 16:54 Mostly Cloudy 90 32.2 69 20.6 50 50 SSW 8 13 29.98 1015 10 16 0.00 0.00
5:54 pm 17:54 Mostly Cloudy 88 31.1 69 20.6 54 54 S 7 11 29.98 1015 10 16 0.00 0.00
6:54 pm 18:54 Mostly Cloudy 86 30 71 21.7 61 61 SSW 7 11 29.99 1016 10 16 0.00 0.00
7:05 pm 19:05 Mostly Cloudy with Thunderstorms 86 30 71 21.7 61 61 W 13 20 29.99 1016 10 16 0.00 0.00
7:12 pm 19:12 Windy with Storms Likely 80 26.7 70 21.1 71 71 W 20 31 30.00 1016 2 3 0.00 0.00
7:22 pm 19:22 Cloudy with Thunderstorms 75 24 70 21 83 83 NW 12 19 30.00 1016 3 5 0.00 0.00
7:41 pm 19:41 Mostly Cloudy 75 23.9 68 20 79 79 WNW 5 7 29.99 1016 10 16 0.15 3.81
7:54 pm 19:54 Mostly Cloudy 76 24.4 68 20 77 77 Calm 30.00 1016 10 16 0.15 3.81
8:54 pm 20:54 Mostly Cloudy 77 25 70 21.1 79 79 Calm 30.03 1017 10 16 0.00 0.00
9:54 pm 21:54 Partly Cloudy 75 23.9 70 21.1 84 84 VRB 3 6 30.04 1017 10 16 0.00 0.00
10:54 pm 22:54 Mostly Clear 73 22.8 71 21.7 94 94 Calm 30.04 1017 10 16 0.00 0.00
11:54 pm 23:54 Partly Cloudy 75 23.9 71 21.7 88 88 E 7 11 30.04 1017 10 16 0.00 0.00

Powered by AerisWeather